W5GGH Weather Reports


time (UTC)temp
C
wind
direction
speed
KPH
gust
KPH
rain 1hr
cm
rain 24hr
cm
rain mn
cm
humidity
%
barometer
mb
20260509222620 35 7 1.6 3.2 0.00 0.00 0.00 36 1024.5
20260509222116 35 323 3.2 3.2 0.00 0.00 0.00 34 1024.4
20260509221612 35 311 3.2 4.8 0.00 0.00 0.00 34 1024.7
20260509221108 35 338 1.6 3.2 0.00 0.00 0.00 36 1024.4
20260509220604 35 351 3.2 4.8 0.00 0.00 0.00 35 1024.5
20260509220100 35 329 3.2 4.8 0.00 0.00 0.00 34 1024.5
20260509215555 34 342 3.2 3.2 0.00 0.00 0.00 35 1024.5
20260509215054 33 327 3.2 3.2 0.00 0.00 0.00 35 1024.5
20260509214550 34 35 6.4 6.4 0.00 0.00 0.00 37 1024.4
20260509214047 34 340 3.2 4.8 0.00 0.00 0.00 34 1024.5
20260509213543 33 353 3.2 6.4 0.00 0.00 0.00 35 1024.6
20260509213040 33 351 3.2 4.8 0.00 0.00 0.00 34 1024.7
20260509212537 33 346 3.2 4.8 0.00 0.00 0.00 32 1024.8
20260509212034 33 71 0.0 3.2 0.00 0.00 0.00 35 1024.8
20260509211530 33 95 3.2 3.2 0.00 0.00 0.00 32 1024.9
20260509211027 33 17 3.2 4.8 0.00 0.00 0.00 33 1025.0
20260509210524 34 63 3.2 6.4 0.00 0.00 0.00 31 1025.1
20260509210020 33 15 3.2 4.8 0.00 0.00 0.00 32 1025.1
20260509205514 33 22 1.6 4.8 0.00 0.00 0.00 38 1025.2
20260509205010 33 335 4.8 4.8 0.00 0.00 0.00 34 1025.5
20260509204507 33 51 4.8 6.4 0.00 0.00 0.00 35 1025.5
20260509204003 33 20 4.8 6.4 0.00 0.00 0.00 36 1025.5
20260509203459 33 344 3.2 6.4 0.00 0.00 0.00 36 1025.6
20260509202956 33 52 3.2 4.8 0.00 0.00 0.00 37 1025.5
20260509202452 33 149 3.2 6.4 0.00 0.00 0.00 36 1025.7
20260509201947 33 359 1.6 3.2 0.00 0.00 0.00 40 1025.6
20260509201443 32 21 3.2 4.8 0.00 0.00 0.00 36 1025.8
20260509200940 32 7 0.0 6.4 0.00 0.00 0.00 43 1025.9
20260509200440 32 6 1.6 3.2 0.00 0.00 0.00 39 1025.8
20260509195937 32 294 8.0 8.0 0.00 0.00 0.00 37 1025.8
20260509195433 32 10 6.4 8.0 0.00 0.00 0.00 39 1026.0
20260509194932 32 67 3.2 6.4 0.00 0.00 0.00 41 1026.2
20260509194428 32 335 3.2 4.8 0.00 0.00 0.00 42 1025.9
20260509193926 31 318 3.2 6.4 0.00 0.00 0.00 43 1026.2
20260509193425 32 29 4.8 6.4 0.00 0.00 0.00 43 1026.1
20260509192921 32 341 6.4 8.0 0.00 0.00 0.00 42 1026.0
20260509192417 32 10 3.2 3.2 0.00 0.00 0.00 44 1026.0
20260509191913 31 344 3.2 4.8 0.00 0.00 0.00 43 1026.3
20260509191408 31 80 0.0 3.2 0.00 0.00 0.00 44 1026.4
20260509190905 32 346 1.6 8.0 0.00 0.00 0.00 43 1026.3
20260509190402 32 24 3.2 3.2 0.00 0.00 0.00 46 1026.3
20260509185859 31 0 3.2 3.2 0.00 0.00 0.00 49 1026.4
20260509185356 31 336 3.2 6.4 0.00 0.00 0.00 44 1026.4
20260509184853 31 314 3.2 9.7 0.00 0.00 0.00 46 1026.5
20260509184350 31 357 3.2 3.2 0.00 0.00 0.00 49 1026.4
20260509183847 31 323 3.2 6.4 0.00 0.00 0.00 45 1026.5
20260509183342 31 335 3.2 6.4 0.00 0.00 0.00 45 1026.5
20260509182838 31 335 3.2 3.2 0.00 0.00 0.00 46 1026.8
20260509182335 32 314 4.8 8.0 0.00 0.00 0.00 44 1026.8
20260509181832 31 30 3.2 3.2 0.00 0.00 0.00 43 1026.8
20260509181330 31 347 3.2 4.8 0.00 0.00 0.00 46 1026.8
20260509180827 31 17 0.0 3.2 0.00 0.00 0.00 45 1027.0
20260509180323 30 333 3.2 8.0 0.00 0.00 0.00 50 1027.0
20260509175820 30 353 3.2 9.7 0.00 0.00 0.00 50 1027.0
20260509175316 30 94 3.2 3.2 0.00 0.00 0.00 49 1027.0
20260509174812 30 342 1.6 6.4 0.00 0.00 0.00 51 1027.2
20260509174308 30 322 4.8 4.8 0.00 0.00 0.00 48 1027.1
20260509173804 30 9 3.2 4.8 0.00 0.00 0.00 48 1027.2
20260509173259 30 332 0.0 4.8 0.00 0.00 0.00 53 1027.1
20260509172755 30 13 3.2 4.8 0.00 0.00 0.00 49 1027.2
20260509172253 30 352 4.8 6.4 0.00 0.00 0.00 50 1027.4
20260509171748 30 352 0.0 6.4 0.00 0.00 0.00 50 1027.3
20260509171244 30 54 0.0 4.8 0.00 0.00 0.00 51 1027.3
20260509170741 30 336 3.2 6.4 0.00 0.00 0.00 51 1027.3
20260509170237 30 358 1.6 8.0 0.00 0.00 0.00 52 1027.4
20260509165736 30 327 3.2 4.8 0.00 0.00 0.00 53 1027.5
20260509165231 30 38 3.2 9.7 0.00 0.00 0.00 51 1027.6
20260509164727 29 346 3.2 6.4 0.00 0.00 0.00 51 1027.4
20260509164223 28 317 1.6 6.4 0.00 0.00 0.00 53 1027.6
20260509163721 28 349 6.4 6.4 0.00 0.00 0.00 52 1027.7
20260509163217 28 36 3.2 9.7 0.00 0.00 0.00 52 1027.6
20260509162715 28 359 1.6 9.7 0.00 0.00 0.00 53 1027.7
20260509162210 28 31 4.8 9.7 0.00 0.00 0.00 53 1027.7
20260509161706 28 330 6.4 9.7 0.00 0.00 0.00 52 1027.6
20260509161202 28 345 3.2 11.3 0.00 0.00 0.00 52 1027.7
20260509160657 28 327 4.8 6.4 0.00 0.00 0.00 55 1027.7
20260509160153 28 357 3.2 6.4 0.00 0.00 0.00 55 1027.8
20260509155649 28 321 3.2 8.0 0.00 0.00 0.00 56 1027.8
20260509155146 27 316 4.8 6.4 0.00 0.00 0.00 56 1027.8
20260509154641 27 339 4.8 4.8 0.00 0.00 0.00 57 1027.5
20260509154139 27 25 6.4 6.4 0.00 0.00 0.00 58 1027.7
20260509153636 27 49 3.2 6.4 0.00 0.00 0.00 58 1027.7
20260509153132 27 42 4.8 6.4 0.00 0.00 0.00 59 1027.5
20260509152628 27 63 3.2 4.8 0.00 0.00 0.00 61 1027.3
20260509152126 27 352 1.6 6.4 0.00 0.00 0.00 62 1027.5
20260509151622 26 50 3.2 4.8 0.00 0.00 0.00 61 1027.5
20260509151120 26 344 0.0 6.4 0.00 0.00 0.00 63 1027.5
20260509150617 25 318 6.4 8.0 0.00 0.00 0.00 63 1027.5
20260509150115 25 13 3.2 8.0 0.00 0.00 0.00 62 1027.5
20260509145611 25 45 3.2 6.4 0.00 0.00 0.00 64 1027.6
20260509145106 25 11 4.8 6.4 0.00 0.00 0.00 66 1027.4
20260509144604 25 44 3.2 6.4 0.00 0.00 0.00 66 1027.7
20260509144100 25 332 3.2 6.4 0.00 0.00 0.00 66 1027.5
20260509143557 25 64 3.2 6.4 0.00 0.00 0.00 69 1027.5
20260509143055 24 77 1.6 6.4 0.00 0.00 0.00 69 1027.5
20260509142550 23 19 3.2 8.0 0.00 0.00 0.00 72 1027.7
20260509142047 23 354 3.2 6.4 0.00 0.00 0.00 74 1027.7
20260509141543 23 359 4.8 6.4 0.00 0.00 0.00 75 1027.6
20260509141040 23 340 3.2 8.0 0.00 0.00 0.00 76 1027.9
20260509140537 22 7 4.8 8.0 0.00 0.00 0.00 77 1027.7
20260509140035 22 42 4.8 9.7 0.00 0.00 0.00 78 1027.8
20260509135531 22 335 6.4 8.0 0.00 0.00 0.00 78 1027.8
20260509135029 22 331 8.0 9.7 0.00 0.00 0.00 78 1027.9
20260509134526 22 333 8.0 9.7 0.00 0.00 0.00 78 1027.9
20260509134024 22 316 6.4 11.3 0.00 0.00 0.00 78 1027.9
20260509133520 22 319 3.2 8.0 0.00 0.00 0.00 79 1027.8
20260509133018 21 349 4.8 6.4 0.00 0.00 0.00 79 1027.7
20260509132516 21 11 3.2 8.0 0.00 0.00 0.00 79 1027.6
20260509132014 21 345 4.8 6.4 0.00 0.00 0.00 80 1027.5
20260509131510 21 336 8.0 8.0 0.00 0.00 0.00 80 1027.6
20260509131007 20 4 3.2 6.4 0.00 0.00 0.00 80 1027.5
20260509130502 20 345 4.8 8.0 0.00 0.00 0.00 80 1027.7
20260509125959 20 2 3.2 6.4 0.00 0.00 0.00 82 1027.6
20260509125456 20 11 4.8 4.8 0.00 0.00 0.00 82 1027.5
20260509124951 20 308 6.4 6.4 0.00 0.00 0.00 84 1027.6
20260509124449 20 3 3.2 3.2 0.00 0.00 0.00 85 1027.6
20260509123946 18 344 3.2 4.8 0.00 0.00 0.00 88 1027.7
20260509123444 18 7 3.2 3.2 0.00 0.00 0.00 89 1027.5
20260509122939 18 19 3.2 3.2 0.00 0.00 0.00 89 1027.6
20260509122436 18 23 3.2 3.2 0.00 0.00 0.00 89 1027.5
20260509121933 17 21 3.2 3.2 0.00 0.00 0.00 90 1027.5
20260509121430 17 22 1.6 3.2 0.00 0.00 0.00 89 1027.5
20260509120928 17 10 1.6 3.2 0.00 0.00 0.00 88 1027.5
20260509120426 17 8 3.2 3.2 0.00 0.00 0.00 88 1027.3
20260509115924 17 4 1.6 3.2 0.00 0.00 0.00 88 1027.3
20260509115421 17 318 3.2 3.2 0.00 0.00 0.00 87 1027.2
20260509114918 17 31 3.2 3.2 0.00 0.00 0.00 86 1027.2
20260509114417 18 1 3.2 3.2 0.00 0.00 0.00 86 1026.9
20260509113916 18 348 3.2 3.2 0.00 0.00 0.00 85 1026.9
20260509113413 18 36 3.2 3.2 0.00 0.00 0.00 84 1026.7
20260509112909 18 27 1.6 3.2 0.00 0.00 0.00 82 1026.9
20260509112407 18 17 1.6 3.2 0.00 0.00 0.00 81 1026.6
20260509111904 19 16 3.2 3.2 0.00 0.00 0.00 80 1026.4
20260509111400 20 22 3.2 3.2 0.00 0.00 0.00 79 1026.3
20260509110858 20 22 3.2 3.2 0.00 0.00 0.00 78 1026.3
20260509110354 20 25 3.2 3.2 0.00 0.00 0.00 77 1026.5
20260509105852 20 2 3.2 4.8 0.00 0.00 0.00 76 1026.4
20260509105350 20 357 4.8 6.4 0.00 0.00 0.00 75 1026.3
20260509104847 20 302 4.8 6.4 0.00 0.00 0.00 74 1026.3
20260509104343 20 358 3.2 8.0 0.00 0.00 0.00 74 1026.2
20260509103841 20 344 6.4 8.0 0.00 0.00 0.00 72 1026.5
20260509103338 20 12 3.2 4.8 0.00 0.00 0.00 73 1026.6
20260509102837 21 358 3.2 4.8 0.00 0.00 0.00 72 1026.4
20260509102334 21 358 3.2 6.4 0.00 0.00 0.00 72 1026.4
20260509101829 21 352 3.2 9.7 0.00 0.00 0.00 73 1026.3
20260509101326 21 310 6.4 8.0 0.00 0.00 0.00 79 1026.4
20260509100824 21 329 4.8 9.7 0.00 0.00 0.00 81 1026.4
20260509100321 21 9 3.2 8.0 0.00 0.00 0.00 82 1026.4
20260509095817 21 350 4.8 6.4 0.00 0.00 0.00 82 1026.2
20260509095315 21 14 4.8 9.7 0.00 0.00 0.00 82 1026.1
20260509094812 21 20 4.8 12.9 0.00 0.00 0.00 82 1026.3
20260509094308 21 14 4.8 6.4 0.00 0.00 0.00 81 1025.4
20260509093806 21 340 8.0 17.7 0.00 0.00 0.00 83 1025.5
20260509093303 21 353 3.2 4.8 0.00 0.00 0.00 90 1023.9
20260509092802 21 335 3.2 3.2 0.00 0.00 0.00 90 1023.6
20260509092259 21 298 9.7 9.7 0.00 0.00 0.00 90 1023.3
20260509091757 21 85 3.2 6.4 0.00 0.00 0.00 90 1023.1
20260509091253 21 41 1.6 4.8 0.00 0.00 0.00 90 1023.1
20260509090751 21 26 3.2 6.4 0.00 0.00 0.00 90 1023.4
20260509090248 21 347 3.2 4.8 0.00 0.00 0.00 90 1023.8
20260509085745 21 355 3.2 6.4 0.00 0.00 0.00 90 1023.7
20260509085243 21 37 3.2 4.8 0.00 0.00 0.00 90 1024.0
20260509084739 20 42 1.6 6.4 0.00 0.00 0.00 90 1024.0
20260509084235 20 11 3.2 6.4 0.00 0.00 0.00 90 1024.1
20260509083734 20 33 3.2 6.4 0.00 0.00 0.00 90 1024.1
20260509083230 20 13 0.0 4.8 0.00 0.00 0.00 90 1024.4
20260509082727 20 3 3.2 6.4 0.00 0.00 0.00 91 1024.5
20260509082224 20 91 3.2 6.4 0.00 0.00 0.00 91 1024.9
20260509081720 20 336 3.2 4.8 0.00 0.00 0.00 91 1025.0
20260509081218 20 46 3.2 6.4 0.00 0.00 0.00 91 1025.3
20260509080716 20 353 4.8 4.8 0.00 0.00 0.00 91 1025.3
20260509080213 20 60 3.2 4.8 0.00 0.00 0.00 91 1025.4
20260509075711 20 131 3.2 8.0 0.00 0.00 0.00 91 1025.5
20260509075209 20 346 3.2 4.8 0.00 0.00 0.00 91 1025.5
20260509074705 20 17 3.2 4.8 0.00 0.00 0.00 91 1025.7
20260509074202 20 341 3.2 4.8 0.00 0.00 0.00 91 1025.7
20260509073659 20 57 1.6 3.2 0.00 0.00 0.00 91 1026.2
20260509073155 20 37 3.2 4.8 0.00 0.00 0.00 90 1026.8
20260509072652 21 25 3.2 3.2 0.00 0.00 0.00 90 1027.1
20260509072149 21 6 1.6 4.8 0.00 0.00 0.00 89 1027.7
20260509071645 21 15 1.6 3.2 0.00 0.00 0.00 89 1027.7
20260509071143 21 35 1.6 3.2 0.00 0.00 0.00 89 1027.7
20260509070640 21 64 1.6 4.8 0.00 0.00 0.00 90 1028.2
20260509070136 21 41 3.2 6.4 0.00 0.00 0.00 91 1028.7
20260509065632 21 352 3.2 8.0 0.00 0.00 0.00 91 1029.0
20260509065128 20 347 4.8 8.0 0.00 0.00 0.00 92 1029.1
20260509064625 20 4 3.2 4.8 0.00 0.00 0.00 92 1028.9
20260509064124 20 7 3.2 4.8 0.00 0.00 0.00 92 1028.7
20260509063620 20 2 3.2 3.2 0.00 0.00 0.00 93 1028.6
20260509063116 20 2 3.2 3.2 0.00 0.00 0.00 93 1028.5
20260509062614 20 4 3.2 4.8 0.00 0.00 0.00 94 1028.5
20260509062111 20 20 3.2 4.8 0.00 0.00 0.00 94 1028.5
20260509061608 20 0 4.8 6.4 0.00 0.00 0.00 94 1028.6
20260509061105 20 14 3.2 4.8 0.00 0.00 0.00 94 1028.3
20260509060603 20 20 3.2 3.2 0.00 0.00 0.00 94 1027.9
20260509060058 20 19 3.2 3.2 0.00 0.00 0.00 94 1028.3
20260509055554 20 4 3.2 3.2 0.00 0.00 0.00 94 1028.3
20260509055050 20 5 3.2 4.8 0.00 0.00 0.00 94 1028.1
20260509054547 20 12 3.2 3.2 0.00 0.00 0.00 94 1028.1
20260509054045 20 359 3.2 4.8 0.00 0.00 0.00 94 1028.0
20260509053543 20 355 3.2 3.2 0.00 0.00 0.00 94 1027.9
20260509053039 20 11 3.2 4.8 0.00 0.00 0.00 94 1028.0
20260509052538 20 355 3.2 4.8 0.00 0.00 0.00 93 1027.7
20260509052035 20 19 3.2 3.2 0.00 0.00 0.00 93 1027.2
20260509051533 20 18 3.2 3.2 0.00 0.00 0.00 92 1027.2
20260509051030 20 10 3.2 3.2 0.00 0.00 0.00 93 1027.0
20260509050526 20 14 1.6 3.2 0.00 0.00 0.00 92 1027.2
20260509050023 20 12 3.2 3.2 0.00 0.00 0.00 91 1027.0
20260509045520 20 26 3.2 3.2 0.00 0.00 0.00 91 1027.0
20260509045017 20 23 3.2 3.2 0.00 0.00 0.00 91 1027.2
20260509044515 20 7 3.2 3.2 0.00 0.00 0.00 90 1027.2
20260509044012 20 18 3.2 3.2 0.00 0.00 0.00 90 1027.5
20260509043508 20 17 3.2 3.2 0.00 0.00 0.00 90 1027.4
20260509043004 20 11 3.2 3.2 0.00 0.00 0.00 89 1027.3
20260509042500 21 15 3.2 3.2 0.00 0.00 0.00 89 1027.0
20260509041956 21 30 3.2 3.2 0.00 0.00 0.00 89 1027.1
20260509041453 21 19 3.2 3.2 0.00 0.00 0.00 89 1027.3
20260509040951 21 9 4.8 6.4 0.00 0.00 0.00 88 1027.4
20260509040449 21 21 3.2 4.8 0.00 0.00 0.00 88 1027.4
20260509035946 21 27 3.2 4.8 0.00 0.00 0.00 87 1027.1
20260509035442 21 24 3.2 4.8 0.00 0.00 0.00 87 1026.8
20260509034939 21 46 1.6 3.2 0.00 0.00 0.00 87 1026.9
20260509034437 21 24 3.2 3.2 0.00 0.00 0.00 86 1026.8
20260509033934 21 337 3.2 4.8 0.00 0.00 0.00 86 1026.5
20260509033431 22 11 3.2 3.2 0.00 0.00 0.00 86 1026.2
20260509032927 22 39 3.2 3.2 0.00 0.00 0.00 86 1026.3
20260509032425 22 27 3.2 3.2 0.00 0.00 0.00 86 1026.4
20260509031923 22 47 3.2 4.8 0.00 0.00 0.00 85 1026.3
20260509031420 22 95 3.2 4.8 0.00 0.00 0.00 85 1026.0
20260509030917 22 48 3.2 4.8 0.00 0.00 0.00 85 1026.0
20260509030415 22 26 3.2 4.8 0.00 0.00 0.00 84 1026.0
20260509025912 22 356 3.2 6.4 0.00 0.00 0.00 84 1025.9
20260509025408 22 37 3.2 8.0 0.00 0.00 0.00 84 1025.6
20260509024903 22 71 4.8 4.8 0.00 0.00 0.00 84 1025.3
20260509024359 22 18 3.2 4.8 0.00 0.00 0.00 84 1025.2
20260509023856 22 55 3.2 6.4 0.00 0.00 0.00 84 1025.2
20260509023354 22 83 3.2 4.8 0.00 0.00 0.00 83 1025.4
20260509022850 22 66 3.2 4.8 0.00 0.00 0.00 83 1025.5
20260509022347 22 28 3.2 4.8 0.00 0.00 0.00 83 1025.6
20260509021844 22 78 3.2 6.4 0.00 0.00 0.00 83 1025.5
20260509021341 22 41 3.2 3.2 0.00 0.00 0.00 83 1025.4
20260509020839 22 27 3.2 3.2 0.00 0.00 0.00 83 1025.6
20260509020337 22 25 1.6 3.2 0.00 0.00 0.00 83 1025.7
20260509015834 22 37 3.2 3.2 0.00 0.00 0.00 82 1025.4
20260509015332 22 32 1.6 3.2 0.00 0.00 0.00 82 1025.7
20260509014829 22 34 3.2 3.2 0.00 0.00 0.00 82 1025.7
20260509014326 22 33 3.2 3.2 0.00 0.00 0.00 81 1025.6
20260509013822 22 31 3.2 3.2 0.00 0.00 0.00 81 1025.6
20260509013319 22 26 3.2 3.2 0.00 0.00 0.00 81 1025.6
20260509012815 22 30 3.2 3.2 0.00 0.00 0.00 80 1025.6
20260509012312 22 19 3.2 3.2 0.00 0.00 0.00 80 1025.6
20260509011809 23 28 3.2 3.2 0.00 0.00 0.00 79 1025.4
20260509011306 23 40 3.2 3.2 0.00 0.00 0.00 79 1025.2
20260509010804 23 20 3.2 3.2 0.00 0.00 0.00 79 1025.3
20260509010300 23 42 3.2 4.8 0.00 0.00 0.00 78 1025.1
20260509005758 23 18 3.2 3.2 0.00 0.00 0.00 78 1025.0
20260509005256 23 33 0.0 4.8 0.00 0.00 0.00 78 1024.8
20260509004755 23 36 3.2 4.8 0.00 0.00 0.00 78 1024.8
20260509004252 23 42 3.2 4.8 0.00 0.00 0.00 77 1024.9
20260509003751 23 9 1.6 3.2 0.00 0.00 0.00 77 1024.8
20260509003248 23 24 3.2 3.2 0.00 0.00 0.00 77 1024.8
20260509002745 23 24 1.6 3.2 0.00 0.00 0.00 76 1024.8
20260509002242 23 0 1.6 3.2 0.00 0.00 0.00 76 1025.0
20260509001740 23 32 3.2 3.2 0.00 0.00 0.00 76 1025.1
20260509001236 23 25 1.6 3.2 0.00 0.00 0.00 76 1025.3
20260509000734 23 1 1.6 3.2 0.00 0.00 0.00 76 1025.2
20260509000231 23 23 3.2 3.2 0.00 0.00 0.00 76 1025.1
20260508235728 23 20 3.2 3.2 0.00 0.00 0.00 75 1025.2
20260508235224 24 73 3.2 3.2 0.00 0.00 0.00 75 1025.2
20260508234722 24 17 3.2 3.2 0.00 0.00 0.00 75 1025.4
20260508234218 24 9 3.2 4.8 0.00 0.00 0.00 74 1025.3
20260508233717 24 354 3.2 3.2 0.00 0.00 0.00 74 1025.2
20260508233215 24 312 4.8 4.8 0.00 0.00 0.00 74 1025.2
20260508232712 24 11 3.2 3.2 0.00 0.00 0.00 74 1025.2
20260508232208 24 61 3.2 3.2 0.00 0.00 0.00 74 1025.3
20260508231707 24 348 3.2 3.2 0.00 0.00 0.00 74 1025.4
20260508231203 24 46 3.2 4.8 0.00 0.00 0.00 73 1025.4
20260508230700 24 8 4.8 4.8 0.00 0.00 0.00 72 1025.5
20260508230156 24 12 3.2 4.8 0.00 0.00 0.00 72 1025.4
20260508225655 24 34 1.6 3.2 0.00 0.00 0.00 72 1025.4
20260508225150 24 45 1.6 4.8 0.00 0.00 0.00 72 1025.2
20260508224648 25 29 3.2 4.8 0.00 0.00 0.00 71 1025.4
20260508224145 25 51 0.0 4.8 0.00 0.00 0.00 71 1025.2
20260508223643 25 11 3.2 4.8 0.00 0.00 0.00 70 1025.3
20260508223140 25 106 3.2 6.4 0.00 0.00 0.00 70 1025.3